GEFSSE_500_meanwind_288.txt.gz
Wind_Speed
1 0 0 1 1 1 1 1 2 2 2 2 2 2 2 3 3 3 3 4 4 5 7 7 6 7 6 6 7 7 6 6 5 6 7 6 7 7 6 6 5 5 4
1 1 1 2 2 2 2 2 2 3 4 4 3 3 3 3 3 3 3 4 4 5 7 7 8 8 8 7 7 7 7 7 7 7 6 7 7 7 7 7 6 6 5
1 1 2 2 3 3 3 3 4 4 5 5 5 4 4 4 4 4 4 4 5 5 6 7 8 8 8 8 8 8 7 7 7 8 7 7 8 8 8 8 8 7 6
2 2 3 3 3 3 3 3 4 4 5 5 5 5 5 5 5 5 5 5 6 6 6 7 9 8 8 8 9 9 9 8 8 8 8 7 8 9 9 8 8 7 7
3 3 4 4 4 4 4 4 4 5 5 6 6 6 6 6 5 5 6 6 6 7 8 8 8 9 9 8 9 10 9 9 8 8 8 9 8 9 9 9 8 8 8
4 4 4 4 4 4 4 5 4 5 5 6 6 6 6 6 6 6 7 7 7 8 8 9 9 9 9 9 9 10 10 10 10 9 9 9 9 9 9 9 9 9 9
5 5 5 5 5 5 5 5 5 5 6 6 7 7 7 7 7 7 8 7 7 8 8 9 10 10 10 9 10 10 11 10 10 10 9 9 9 9 9 10 10 10 10
6 6 6 6 6 6 6 6 6 6 6 7 7 7 8 8 7 7 8 7 7 7 7 8 9 10 10 9 9 9 10 11 10 10 10 11 10 10 10 10 10 10 10
6 6 6 6 6 7 7 7 7 7 7 7 7 7 8 8 8 7 7 7 7 7 7 6 6 7 9 9 9 9 10 11 11 11 11 11 11 11 11 11 11 11 11
6 6 6 6 7 7 7 7 8 8 8 8 8 8 9 9 9 8 8 8 8 7 6 5 5 7 8 9 9 9 9 10 11 11 11 12 12 11 11 12 11 11 11
6 6 6 7 7 7 7 8 8 8 8 8 9 9 9 9 9 9 9 8 8 7 6 5 6 7 7 8 9 9 9 10 10 11 12 12 12 11 12 12 12 12 12
5 6 7 7 7 7 8 8 8 8 9 9 9 9 9 9 10 10 9 9 9 9 8 7 7 8 9 8 9 10 10 10 10 11 11 11 12 12 12 12 12 12 12
5 6 6 7 7 7 7 8 8 9 8 9 9 9 9 9 10 10 10 9 9 9 8 8 8 9 10 10 10 11 10 10 11 11 11 11 12 12 13 12 12 11 11
5 6 6 6 6 6 7 7 8 8 8 8 9 9 9 9 10 10 10 10 10 9 9 9 10 10 10 10 11 11 12 11 12 11 11 11 12 12 12 12 12 11 11
5 5 6 6 6 6 7 7 7 8 8 8 8 9 9 8 9 9 9 10 10 10 10 10 10 11 11 12 11 12 12 11 12 12 11 11 11 12 12 12 12 11 12
5 5 6 6 6 6 7 7 7 8 8 8 8 8 8 8 7 8 8 8 9 9 9 10 10 10 11 11 11 11 12 11 11 11 11 12 12 12 13 13 12 12 12
5 6 6 6 6 6 7 7 8 8 8 8 8 8 8 7 7 7 8 9 9 9 9 10 10 10 10 10 10 11 11 11 11 12 12 12 12 12 12 13 13 13 13
6 6 6 6 7 6 7 7 7 7 7 7 7 8 8 8 8 8 8 9 9 9 9 9 9 9 10 10 10 10 10 11 11 12 13 13 13 12 12 12 13 13 13
7 7 7 7 7 7 7 8 7 6 6 7 7 7 8 8 8 8 8 9 9 9 8 8 9 9 10 10 10 10 10 11 11 11 12 12 12 12 12 12 12 13 13
9 8 9 9 8 8 8 8 7 7 7 7 7 8 8 8 8 8 8 8 9 9 8 8 8 8 9 9 9 9 9 10 10 11 11 11 11 10 11 12 12 13 13
10 10 10 10 9 9 9 8 8 8 8 8 8 8 8 8 8 8 8 8 9 9 8 8 8 8 8 8 8 9 9 10 10 10 10 11 11 10 10 11 12 12 12
11 11 10 10 9 9 9 9 8 9 9 9 8 8 8 9 9 8 8 8 8 8 8 8 8 8 8 8 8 9 9 10 10 10 11 11 11 11 11 11 11 11 11
11 11 10 10 10 10 9 9 9 9 9 9 9 9 9 10 9 9 8 8 8 8 8 8 8 8 8 8 8 8 9 10 10 10 11 11 11 11 11 10 11 11 11
12 12 12 12 11 11 10 10 9 9 9 9 9 9 9 9 9 9 9 9 9 9 9 8 8 9 8 8 9 9 9 9 10 11 11 12 11 11 11 10 10 10 11
13 13 13 13 13 12 11 11 10 10 10 10 9 9 9 9 9 9 9 9 9 9 9 9 9 9 9 9 9 9 10 10 10 10 11 11 11 11 11 11 11 11 11
15 15 14 14 14 13 12 12 11 11 11 11 11 10 9 9 9 9 10 9 10 9 9 10 9 10 10 10 10 10 11 11 11 11 11 11 11 11 11 11 11 11 12

GEFSSE_500_meanwind_294.txt.gz
Wind_Speed
2 3 3 3 3 3 4 4 4 5 5 4 4 4 4 4 5 5 6 6 6 7 8 7 7 6 6 6 5 5 4 5 5 6 5 5 6 6 5 5 5 4 3
3 3 4 4 4 4 4 5 5 6 6 6 5 6 6 6 5 5 6 6 7 8 8 8 8 7 7 7 7 6 6 6 6 6 7 6 6 6 6 6 6 5 4
4 4 5 5 5 5 5 6 6 7 7 6 7 7 7 6 5 5 6 6 7 7 7 7 7 8 8 8 8 7 7 7 6 6 7 8 8 7 7 7 7 6 5
4 4 5 5 5 6 6 6 6 6 7 7 7 8 8 7 7 6 6 5 6 7 8 7 8 8 9 9 9 9 8 8 7 7 8 9 9 8 8 8 7 7 6
5 5 5 6 6 6 7 7 7 7 7 7 8 8 8 8 8 7 7 6 6 7 9 9 9 9 9 9 9 9 9 9 9 7 8 9 9 9 8 8 8 8 7
7 7 7 7 7 7 7 8 7 8 8 8 8 9 9 8 8 8 8 8 9 9 10 10 10 10 9 9 9 9 9 10 10 9 8 9 9 9 9 8 8 8 8
7 8 8 8 8 8 8 8 8 8 8 8 9 9 9 8 8 8 9 9 10 10 11 11 11 11 10 9 9 9 9 9 10 9 9 10 10 10 10 9 8 9 9
8 8 8 9 9 9 9 9 9 9 9 9 9 9 9 8 9 9 9 9 9 10 10 10 11 11 10 10 10 10 9 9 9 10 10 10 10 9 10 10 9 9 9
8 8 8 8 9 9 9 9 9 10 10 10 10 10 10 9 9 9 10 9 10 10 10 10 9 10 10 10 10 10 10 10 10 10 10 9 10 10 10 10 10 10 10
8 8 8 8 8 8 9 9 9 10 10 11 11 11 10 10 10 10 9 9 9 9 10 10 10 10 11 10 10 10 10 10 10 10 10 10 10 10 11 11 11 11 10
7 8 8 7 8 8 9 9 10 10 10 10 10 11 11 11 10 10 10 10 10 10 10 10 10 10 10 10 10 9 10 10 10 10 10 10 10 10 11 12 12 12 12
6 7 7 7 8 8 9 9 10 10 10 10 11 11 11 11 11 11 11 10 10 10 9 8 9 10 11 10 10 10 10 11 10 11 11 11 11 11 12 12 13 13 13
6 7 7 7 7 8 8 9 10 10 10 10 11 11 11 11 11 11 11 10 9 9 8 8 9 9 10 10 10 11 11 11 11 11 11 11 12 12 12 12 13 13 13
7 7 8 8 8 8 9 9 9 10 10 10 10 10 11 11 10 9 10 10 9 8 8 8 8 9 10 10 11 11 10 11 12 12 12 12 12 13 13 13 13 14 13
7 7 8 8 9 9 9 9 9 9 10 10 11 10 10 10 10 9 9 9 9 9 8 8 9 10 10 11 12 12 11 12 12 13 13 13 13 13 13 13 13 14 13
7 8 8 8 8 8 9 9 9 10 10 11 11 10 10 10 9 9 9 9 9 9 9 10 10 10 10 11 11 12 12 12 12 12 12 13 13 12 12 12 12 13 13
7 7 8 9 8 8 9 9 10 10 11 11 10 10 10 9 9 9 9 9 9 9 9 10 10 11 11 11 11 11 12 12 11 12 12 12 12 12 12 12 12 12 12
8 8 8 9 8 9 9 10 10 11 11 11 10 10 10 10 10 10 10 10 9 9 9 10 11 11 11 11 11 11 12 12 11 12 11 12 12 12 12 11 11 12 12
9 9 9 9 9 9 10 10 10 11 11 10 10 10 10 10 10 10 10 11 10 10 10 10 11 11 11 11 11 11 12 12 12 12 11 11 11 11 11 11 12 12 12
10 10 10 10 10 10 10 11 11 11 11 10 10 10 10 10 11 11 10 10 11 11 10 10 11 11 11 10 10 10 10 11 11 10 10 10 11 11 11 11 12 12 13
10 10 11 11 11 11 11 11 11 11 11 11 11 11 11 11 11 11 11 10 10 10 10 10 10 10 10 9 9 9 10 10 10 10 10 10 10 10 11 11 11 11 11
11 11 11 12 12 12 12 12 12 12 12 11 11 12 12 12 11 11 11 10 10 9 9 10 10 10 9 9 8 9 9 9 9 9 9 9 10 10 10 10 10 10 11
13 13 13 13 13 13 13 12 12 12 12 12 12 12 12 12 12 11 11 10 9 9 9 9 10 10 9 9 9 9 10 10 10 10 9 10 10 10 10 10 10 10 10
14 14 14 13 13 13 13 13 13 13 13 13 13 12 12 12 12 11 11 11 10 10 10 10 10 10 10 10 10 10 10 11 11 11 10 11 11 11 11 10 10 10 11
16 15 15 15 14 14 14 14 14 14 14 13 13 13 12 12 12 12 11 11 11 11 11 11 11 10 10 10 10 11 11 11 11 11 11 11 11 12 12 12 11 11 10
17 17 16 16 16 16 16 15 15 15 15 14 14 14 13 13 13 12 12 12 12 12 11 11 12 11 11 11 11 11 11 12 12 12 12 12 12 12 12 12 12 11 11

GEFSSE_500_meanwind_300.txt.gz
Wind_Speed
2 2 1 1 2 2 2 2 2 3 3 3 4 4 4 4 4 5 7 7 7 7 7 7 8 8 7 7 7 6 6 5 6 6 7 7 7 7 7 7 6 6 5
2 2 2 2 2 2 3 3 4 4 4 4 4 5 5 6 7 7 8 8 8 8 9 9 9 9 9 9 8 8 8 7 7 7 7 8 8 8 7 7 7 6 6
2 2 3 2 2 2 3 4 4 5 5 5 5 6 7 7 8 8 8 9 9 9 9 9 9 10 10 9 10 9 9 8 8 8 8 8 8 8 7 7 7 7 7
3 3 3 3 3 3 4 4 5 5 6 6 6 7 7 7 7 8 9 9 9 9 9 10 10 10 10 10 10 10 9 9 9 9 9 9 9 8 8 8 8 7 7
4 4 4 4 4 4 4 5 5 6 6 7 6 6 6 7 6 7 8 8 9 9 9 10 10 10 10 11 10 10 10 10 10 10 10 10 10 9 9 8 8 8 8
5 5 5 5 5 5 5 5 6 6 7 6 6 6 6 7 7 6 6 7 8 8 9 10 11 11 11 11 11 11 11 11 11 11 11 11 11 11 10 10 9 9 9
6 6 6 6 6 6 6 6 7 7 7 7 6 7 6 6 6 7 7 7 8 9 10 11 11 11 12 12 12 12 11 11 11 11 12 12 12 12 11 11 11 10 10
6 6 7 6 7 7 7 7 7 7 7 7 8 8 7 6 6 6 7 8 8 9 10 11 11 11 11 12 12 11 11 11 11 12 13 13 13 12 11 11 11 11 11
5 6 6 7 7 7 7 7 7 7 7 8 8 8 8 7 7 7 7 8 9 9 9 9 9 10 10 11 10 11 11 11 11 12 12 13 13 12 11 11 11 12 12
6 6 6 6 6 7 7 7 7 7 7 7 7 8 8 8 8 7 7 8 9 9 10 10 9 10 10 10 10 11 11 11 11 12 12 12 12 12 12 12 12 12 12
4 5 5 5 5 5 6 6 6 7 7 7 7 8 8 8 8 8 8 8 9 9 9 10 10 10 11 11 11 11 11 11 11 11 11 11 11 11 12 12 12 12 12
3 3 4 4 5 5 5 6 6 7 7 7 7 8 8 8 8 9 9 9 9 10 10 10 10 11 12 12 12 11 11 11 11 12 12 11 12 12 12 12 12 12 12
2 3 4 5 5 5 5 6 6 7 7 7 7 7 8 9 9 8 8 8 9 10 10 10 11 11 12 11 11 11 12 12 11 11 12 12 12 13 13 13 12 12 12
3 4 4 5 5 5 5 5 5 6 6 7 7 7 8 8 9 8 8 8 8 9 10 10 10 11 12 12 12 11 12 12 11 11 12 13 13 13 14 14 14 14 13
3 4 4 4 5 5 5 5 5 5 6 7 7 7 7 7 8 8 8 8 9 9 9 8 9 10 11 11 12 12 12 12 11 12 12 13 14 14 14 14 14 14 14
5 4 5 5 5 5 5 5 5 5 6 6 7 7 7 7 7 8 8 9 9 9 9 8 8 9 10 10 11 12 12 13 12 12 13 13 14 14 14 14 14 14 14
6 5 6 5 5 5 5 5 6 6 6 7 7 6 6 7 7 7 8 9 9 8 8 8 8 9 10 11 11 12 13 13 12 12 12 12 13 13 14 14 14 15 15
5 5 6 5 5 6 5 6 6 7 7 7 7 7 6 6 7 7 8 8 8 8 9 9 8 10 10 10 11 11 12 12 12 12 12 12 12 12 13 13 14 14 15
6 6 6 6 6 6 6 7 7 7 8 7 7 7 7 7 7 8 9 9 9 9 9 9 9 10 10 11 11 11 11 11 11 12 12 12 12 12 12 12 12 12 13
7 7 6 6 7 7 7 7 7 8 8 8 8 8 8 8 8 9 9 9 9 9 9 10 10 10 10 11 11 11 11 12 12 12 12 12 11 11 11 12 12 12 13
8 8 8 7 7 7 8 8 8 8 9 9 9 9 9 9 8 9 9 9 9 9 9 10 9 9 10 11 11 12 11 11 11 12 12 11 11 11 12 12 12 12 13
9 9 9 9 9 8 9 9 9 9 9 10 10 10 10 10 9 9 10 9 9 9 9 9 9 9 10 10 11 11 11 11 11 11 11 11 12 12 12 12 12 12 12
10 11 10 10 10 10 10 10 10 10 11 11 11 11 10 10 10 10 10 10 9 9 9 9 9 9 9 9 10 11 11 12 12 12 12 12 12 13 12 12 13 13 13
11 11 11 11 12 12 12 12 11 12 12 12 12 11 11 11 10 11 11 10 10 10 10 10 9 9 10 10 10 11 11 12 11 12 12 12 13 13 13 12 12 12 12
12 12 13 12 13 13 13 13 13 13 13 13 13 13 12 12 12 12 11 11 11 11 11 11 11 10 11 11 11 11 12 12 12 13 12 13 14 14 14 13 13 13 13
13 14 14 14 14 14 15 15 14 14 14 14 13 14 13 13 13 13 13 13 13 12 12 13 12 12 12 12 12 12 12 12 13 13 13 14 14 14 14 14 14 13 13

GEFSSE_500_meanwind_306.txt.gz
Wind_Speed
3 3 2 2 3 3 3 3 3 3 3 3 3 4 4 4 4 5 5 5 6 6 6 7 7 6 6 6 6 5 5 5 6 6 6 6 6 6 7 6 6 6 5
4 4 3 3 3 4 3 3 3 3 4 4 4 4 5 5 6 6 6 7 7 7 8 8 8 8 8 8 8 7 7 7 7 7 8 7 7 7 6 6 7 6 6
4 4 4 4 4 4 4 4 4 4 4 5 5 5 6 7 7 8 8 8 8 8 9 9 9 9 9 9 9 8 8 8 8 8 9 8 8 8 7 7 7 7 6
5 5 4 4 4 4 4 4 4 4 5 5 5 6 7 8 8 8 8 9 9 9 9 9 9 9 10 10 10 9 9 9 10 10 10 9 9 9 8 7 7 7 7
6 5 5 4 4 5 5 5 5 5 5 6 6 6 7 8 9 9 9 9 9 9 9 9 9 10 10 10 10 11 11 11 11 10 10 10 9 10 9 9 8 8 7
5 5 5 6 5 5 5 6 6 6 6 6 7 7 7 6 7 7 8 8 9 9 9 9 10 10 10 11 11 11 11 12 12 11 11 10 10 10 10 10 10 10 9
5 6 6 6 6 6 5 6 6 6 6 7 7 7 7 6 6 6 7 8 9 10 10 10 10 11 11 11 11 12 12 12 12 11 11 11 11 11 11 11 11 11 11
6 6 6 6 6 6 6 6 6 6 7 7 7 7 7 7 7 7 7 8 9 9 10 10 11 11 11 11 11 11 11 13 13 12 12 12 12 12 12 12 11 11 12
6 6 6 6 6 6 6 6 6 6 7 7 7 7 7 7 7 8 8 8 9 9 10 11 11 11 11 11 11 11 11 12 12 13 13 13 13 13 13 13 13 12 12
6 6 6 5 5 5 5 5 6 6 6 6 7 7 7 7 7 8 8 9 9 9 9 10 11 11 11 11 11 11 11 11 11 12 13 13 13 13 13 13 13 13 13
5 5 5 5 5 5 5 5 6 6 6 6 6 7 7 7 7 8 8 9 10 11 11 11 11 11 11 11 11 11 12 12 11 12 13 13 13 13 13 13 13 13 13
4 4 4 4 5 5 6 6 6 6 6 7 7 7 8 8 8 7 7 8 9 10 10 11 11 11 11 11 11 12 12 13 13 13 13 14 14 13 13 13 13 13 13
3 4 4 5 5 5 5 5 6 6 7 7 7 8 8 9 9 8 8 8 9 9 10 11 11 12 12 11 11 13 13 13 13 13 13 14 13 13 13 13 13 13 13
3 3 4 4 5 5 5 5 5 6 6 7 7 8 8 8 8 8 9 8 8 9 10 11 10 12 13 12 12 12 13 13 13 13 13 13 13 14 13 13 13 13 13
3 4 4 5 4 4 5 5 5 6 6 6 7 8 8 8 8 8 9 8 9 9 9 10 11 12 12 13 13 13 13 13 13 12 13 14 14 14 14 14 15 15 14
4 5 5 5 5 5 5 5 5 5 6 6 6 7 7 8 8 8 8 9 9 9 10 10 10 10 11 11 13 13 13 13 13 14 14 14 14 14 15 16 16 16 15
4 5 5 5 5 5 5 5 6 6 6 6 7 7 8 8 8 8 9 9 9 9 9 9 9 10 10 10 11 12 13 13 13 14 14 14 14 14 15 16 16 16 16
5 5 6 6 6 6 6 6 6 7 7 7 7 7 7 7 7 8 8 9 10 10 9 9 9 10 10 10 10 11 12 13 13 14 14 15 15 15 15 15 16 16 16
6 6 6 6 6 6 6 6 7 7 7 7 7 7 7 7 8 8 8 9 10 10 10 10 10 10 10 10 11 11 11 12 13 13 14 14 14 15 15 15 16 16 16
7 7 7 7 7 7 7 7 8 8 8 8 8 8 8 8 8 8 8 9 10 10 10 9 10 10 10 10 10 11 11 12 12 13 14 14 14 14 14 15 15 15 15
8 8 8 8 8 8 8 8 8 9 9 9 8 8 8 9 8 9 9 10 10 10 10 10 10 10 10 10 11 11 11 12 12 13 13 13 13 14 14 14 14 13 14
9 9 8 8 9 9 9 9 9 9 9 9 9 9 10 10 10 10 10 10 10 10 10 10 10 10 11 11 11 11 12 13 13 13 13 13 13 14 14 13 12 12 13
10 10 10 10 10 10 10 10 10 10 10 11 10 10 11 11 11 11 11 11 10 10 10 10 11 11 11 11 12 12 12 13 13 13 13 14 13 14 13 13 13 13 13
12 12 12 12 11 11 11 12 12 11 12 12 12 12 12 12 11 12 12 11 11 10 11 11 11 12 12 12 12 12 12 13 13 13 14 14 14 14 14 14 13 13 13
14 14 13 13 13 12 13 13 13 13 13 13 13 13 13 13 12 12 12 12 12 11 11 12 12 12 12 12 13 13 14 14 14 14 14 14 14 14 14 14 14 13 13
15 15 15 15 15 14 14 15 15 15 15 14 14 14 14 14 13 13 13 12 12 12 12 12 12 12 12 13 14 14 15 15 15 16 16 15 15 15 15 15 15 15 15

GEFSSE_500_meanwind_312.txt.gz
Wind_Speed
5 4 4 3 3 3 3 4 4 4 4 3 4 4 4 5 6 6 7 7 8 8 8 8 8 7 7 7 6 6 6 7 7 8 8 8 8 8 7 7 7 7 6
6 6 5 4 4 4 4 4 4 4 4 5 5 5 4 5 6 7 8 8 9 9 9 9 9 8 8 7 7 7 7 8 8 8 9 8 8 8 8 7 7 7 7
7 7 7 6 6 6 5 5 4 5 5 5 5 5 5 6 6 7 8 9 9 9 10 10 10 9 9 9 9 8 8 8 9 9 9 9 9 9 9 8 8 8 8
7 7 8 7 7 7 6 6 5 5 5 5 5 6 6 7 7 8 8 9 9 10 10 11 10 10 10 10 10 9 9 9 10 10 11 11 10 10 10 9 9 9 9
6 7 7 7 7 7 7 7 6 6 6 6 6 6 7 9 9 9 9 9 10 10 10 11 11 11 11 11 11 11 11 11 11 11 12 12 12 12 11 11 10 10 10
7 7 8 8 8 8 7 8 7 7 7 7 7 8 8 9 10 11 10 10 10 10 10 10 11 11 11 12 12 12 12 11 11 11 12 13 13 12 13 13 11 11 11
7 7 7 7 7 8 8 8 7 7 8 8 8 8 8 8 8 9 10 10 10 10 10 11 11 11 11 11 11 12 12 12 12 12 11 12 13 13 13 13 13 12 12
7 6 7 7 7 7 8 8 7 7 7 8 8 8 7 6 7 8 10 10 10 11 11 11 11 12 11 11 11 11 11 12 12 12 12 12 13 13 13 14 13 13 13
6 6 6 6 7 7 7 7 7 7 7 7 7 7 7 6 6 7 9 10 11 11 11 11 12 12 12 12 12 12 12 12 12 12 12 12 13 13 14 14 14 14 14
5 6 6 7 7 7 7 7 7 7 7 7 7 7 7 7 7 7 9 10 10 11 12 12 12 13 12 12 12 12 12 12 13 13 13 13 13 13 14 15 15 14 14
5 6 6 7 7 7 7 7 7 7 7 7 7 7 7 7 8 8 9 9 10 11 12 13 13 13 13 12 12 12 13 13 13 14 14 14 14 14 14 14 14 14 14
4 4 5 5 6 7 8 8 7 7 7 7 7 7 7 8 8 9 10 10 11 11 11 12 12 13 13 13 13 12 13 13 13 14 14 15 15 15 14 14 13 13 13
4 4 4 5 5 5 5 6 7 7 7 7 8 8 8 9 9 9 10 10 11 12 12 12 12 13 14 13 13 13 12 12 13 13 14 14 15 15 14 14 14 14 13
4 4 4 4 4 5 5 5 5 6 6 6 7 7 7 8 9 10 10 10 10 11 11 12 13 13 13 13 13 13 13 13 13 13 14 15 15 15 15 15 15 15 14
5 5 5 5 4 4 5 5 5 5 5 6 6 6 7 7 8 9 10 10 10 11 11 11 12 12 13 13 13 13 13 14 14 14 14 15 14 14 15 15 15 15 15
5 5 5 5 5 5 5 5 4 4 5 6 6 6 7 7 8 8 9 10 10 10 10 10 11 11 12 13 13 14 14 14 15 15 15 15 15 15 15 16 16 16 16
6 6 6 6 6 6 6 5 5 5 6 6 6 7 8 8 8 9 9 10 10 10 10 11 11 11 11 12 13 14 14 14 14 15 16 16 15 15 16 16 16 16 17
6 6 6 6 6 7 7 7 6 6 7 7 7 8 8 9 9 9 9 10 10 11 11 10 11 11 11 12 13 13 14 14 14 15 15 15 16 16 16 15 16 17 17
7 7 8 7 7 7 7 8 7 8 8 8 8 8 9 9 9 9 10 10 10 10 10 10 11 11 11 12 12 13 14 14 14 14 14 15 16 16 16 16 16 17 17
9 9 9 9 9 9 8 8 8 8 8 8 9 9 9 9 9 9 10 10 10 11 11 11 11 11 11 12 12 13 14 14 14 14 14 15 15 16 16 17 17 17 17
10 10 10 10 10 10 10 9 9 9 9 10 10 10 10 10 11 10 10 10 10 11 11 11 12 12 12 12 12 13 14 14 14 14 14 15 15 16 15 16 17 18 18
12 12 12 11 11 11 11 11 11 11 11 11 11 11 11 11 12 12 11 11 11 11 11 12 12 12 13 13 13 14 14 15 15 15 15 15 16 16 16 17 17 18 18
13 13 13 13 13 13 13 13 13 13 13 12 12 12 12 12 12 12 12 12 12 12 12 12 12 12 13 13 14 14 14 14 15 15 16 16 16 16 16 17 17 18 18
14 14 14 14 14 14 14 14 14 14 14 14 14 14 13 13 12 12 13 13 13 12 12 12 12 12 13 13 14 14 15 15 15 15 15 16 17 17 17 17 17 18 18
15 15 15 15 15 15 15 15 15 15 15 15 15 15 14 13 13 13 13 13 13 13 13 13 13 13 13 13 13 14 14 15 15 15 15 16 16 17 17 17 18 17 17
15 16 16 16 16 16 16 16 16 16 16 16 16 16 15 15 15 15 15 14 14 14 14 14 13 13 13 13 13 14 14 15 15 16 16 16 15 16 16 17 17 17 16

GEFSSE_500_meanwind_318.txt.gz
Wind_Speed
6 6 6 6 6 5 5 5 5 5 5 5 5 4 5 5 6 6 6 6 6 7 7 7 7 6 6 6 6 5 5 6 5 6 7 6 6 6 6 6 5 5 4
7 7 7 7 6 6 6 6 5 5 5 4 4 5 5 6 6 7 7 7 7 7 8 8 8 7 7 7 6 6 6 7 7 7 7 7 7 8 8 7 6 5 5
8 8 8 8 7 7 6 6 6 6 6 5 4 4 6 6 7 7 7 8 8 9 9 9 9 9 9 8 8 7 7 8 8 8 8 8 8 9 9 8 8 7 6
9 9 9 9 8 7 7 7 7 6 6 6 6 5 6 6 7 7 8 8 8 9 9 10 10 11 11 10 9 9 9 9 9 9 9 9 9 9 9 9 9 8 8
9 9 9 8 8 8 8 8 8 7 7 7 7 7 7 7 8 8 8 8 8 9 9 10 10 11 11 11 11 10 10 10 10 10 10 10 11 10 10 10 10 10 9
9 9 9 8 9 9 9 9 9 8 8 8 8 8 8 9 9 9 9 9 9 10 10 11 11 11 11 11 11 11 11 11 11 11 10 11 11 12 11 11 11 11 11
9 9 9 8 8 8 8 9 8 8 8 8 8 9 9 9 9 9 9 9 9 10 11 11 11 11 11 11 11 11 11 11 11 11 11 11 12 12 12 12 12 12 12
9 9 8 8 8 7 8 8 8 8 8 8 8 8 9 9 10 10 10 9 9 10 10 11 11 11 11 11 11 11 11 12 11 11 11 11 12 13 13 12 13 13 13
9 8 8 8 8 8 7 8 8 8 8 7 7 8 8 9 9 9 10 9 10 10 10 11 11 12 12 12 12 12 11 12 12 12 12 12 12 12 12 13 13 13 13
7 8 8 8 8 8 7 7 7 8 8 8 8 8 8 7 8 8 9 10 10 11 11 12 12 12 13 13 13 13 13 13 13 13 12 13 13 12 13 14 14 13 13
6 6 7 7 7 7 7 7 7 7 7 7 7 8 7 7 7 8 9 10 10 11 11 12 13 13 13 13 13 13 13 14 14 13 13 13 13 13 14 14 13 12 12
6 6 6 6 6 7 7 8 7 7 7 7 7 8 8 8 8 8 9 10 11 11 12 12 13 13 13 13 13 13 13 13 14 13 13 13 13 14 13 13 12 12 12
6 6 6 7 7 7 7 7 7 8 8 8 7 8 8 9 9 9 10 11 11 12 12 12 13 13 13 13 13 13 13 13 13 13 13 12 13 13 13 13 12 12 12
6 6 6 7 7 7 7 7 7 8 8 8 7 7 8 9 9 9 10 10 11 11 12 12 12 13 13 13 14 13 13 13 13 13 13 13 13 13 13 14 14 13 13
7 7 7 7 7 7 7 7 8 8 8 8 8 8 8 9 10 10 10 10 11 11 12 12 12 13 13 13 13 13 13 13 13 13 13 13 13 14 14 14 15 14 14
8 7 8 8 8 7 7 8 8 8 8 8 8 8 8 8 9 10 10 10 11 11 11 11 11 12 12 12 13 14 14 12 13 14 14 14 14 14 14 14 15 15 15
8 8 8 8 8 8 7 7 8 8 8 8 8 8 8 8 9 10 10 10 11 11 11 11 11 11 11 11 12 14 14 14 14 13 14 14 14 14 14 15 15 14 14
8 8 9 9 9 8 8 8 8 8 8 8 9 9 9 9 10 10 10 10 11 10 10 10 10 10 10 11 12 12 13 14 14 14 14 14 15 15 15 15 15 15 15
10 10 10 10 10 9 9 9 9 9 9 9 9 10 11 11 11 11 10 11 10 10 10 10 10 10 10 11 11 12 13 13 13 12 13 13 14 15 15 15 15 15 15
11 11 10 10 10 10 10 10 10 10 10 10 10 10 11 12 12 13 13 12 11 11 11 11 11 11 11 11 11 12 12 13 13 12 12 13 13 14 15 15 16 16 15
11 12 11 11 11 11 11 11 11 11 11 11 11 12 12 12 13 13 14 13 13 12 12 12 12 12 12 12 11 11 12 12 12 13 13 13 14 14 14 15 15 15 15
12 13 13 13 13 12 12 12 12 12 12 12 13 13 13 13 13 13 13 13 14 14 13 13 13 13 13 13 12 12 12 13 13 14 14 14 15 15 15 15 15 15 16
13 13 13 13 13 13 13 13 13 13 13 14 14 14 14 14 14 14 14 14 14 14 14 14 14 14 13 13 13 13 14 14 14 14 15 15 15 15 15 16 16 15 16
13 13 13 14 14 13 13 14 14 14 14 14 15 15 14 14 15 15 15 15 15 15 14 14 14 13 13 13 14 14 14 15 15 15 15 15 15 15 15 16 16 16 16
14 14 13 14 14 14 14 14 15 15 15 15 16 16 16 16 16 16 16 16 16 15 15 14 14 14 14 14 14 14 14 14 15 15 15 15 15 15 16 16 17 17 17
13 13 14 14 14 15 15 15 15 15 16 16 16 17 17 17 17 17 17 17 16 16 16 15 15 15 14 14 14 14 14 14 15 15 15 15 15 15 15 15 15 16 17